Location: Castelbiague
(43.0361°N, 0.9246°E)
Time: 08:29:39
(UTC+00:00)

Uribyol 2 - Visible Passes

Search period start: 29 January 2022 00:00
Search period end: 08 February 2022 00:00
Orbit: 781 x 796 km, 98.9° (Epoch: 28 January)

Date Brightness Start Highest point End Pass type
(mag) Time Alt. Az. Time Alt. Az. Time Alt. Az.
29 Jan ? 06:36:01 10° NE 06:40:25 27° E 06:44:47 10° SSE visible
29 Jan ? 17:54:27 10° SE 17:59:22 46° ENE 18:04:18 10° N visible
29 Jan ? 19:35:01 10° SW 19:38:59 22° W 19:43:01 10° NW visible
30 Jan ? 06:07:28 10° ENE 06:10:16 14° E 06:13:03 10° ESE visible
30 Jan ? 19:04:06 10° S 19:08:57 41° W 19:13:50 10° NNW visible
31 Jan ? 18:33:53 10° S 18:39:02 79° WSW 18:44:13 10° NNW visible
01 Feb ? 18:04:13 10° SSE 18:09:15 56° ENE 18:14:19 10° N visible
01 Feb ? 19:45:30 10° SW 19:49:01 18° W 19:52:34 10° NW visible
02 Feb ? 06:16:50 10° NE 06:20:19 18° E 06:23:47 10° SE visible
02 Feb ? 17:35:06 10° SE 17:39:35 31° ENE 17:44:06 10° N visible
02 Feb ? 19:14:16 10° SSW 19:18:55 34° W 19:23:37 10° NNW visible
03 Feb ? 18:43:52 10° S 18:48:58 65° WSW 18:54:07 10° NNW visible
04 Feb ? 18:14:02 10° SSE 18:19:08 69° ENE 18:24:18 10° N visible
04 Feb ? 19:56:09 10° SW 19:59:03 15° W 20:01:58 10° NW visible
05 Feb ? 06:26:22 10° NE 06:30:20 22° E 06:34:18 10° SE visible
05 Feb ? 17:44:44 10° SE 17:49:27 37° ENE 17:54:11 10° N visible
05 Feb ? 19:24:31 10° SSW 19:28:55 28° W 19:33:20 10° NW visible
06 Feb ? 05:58:38 10° ENE 06:00:09 11° E 06:01:40 10° ESE visible
06 Feb ? 18:53:54 10° S 18:58:55 53° W 19:03:59 10° NNW visible
07 Feb ? 18:23:54 10° SSE 18:29:02 83° ENE 18:34:14 10° NNW visible
07 Feb ? 20:07:10 10° WSW 20:09:06 12° W 20:11:03 10° WNW visible
